Miscellaneous Local Product
Issued by NWS North Platte, NE

Home | Current Version | Previous Version | Graphics & Text | Print | Product List | Glossary On
Versions: 1 2 3 4 5 6 7 8 9 10 11 12 13 14 15 16 17 18 19 20 21 22 23 24 25 26 27 28 29 30 31 32 33 34 35 36 37 38 39 40 41 42 43 44 45 46 47 48 49 50
308
AXUS43 KLBF 131210
MISLBF


WESTERN AND NORTH CENTRAL NEBRASKA HOURLY WEATHER ROUNDUP
NATIONAL WEATHER SERVICE NORTH PLATTE NE
600 AM CST SAT FEB 13 2016

NOTE: "FAIR" INDICATES FEW OR NO CLOUDS BELOW 12,000 FEET WITH NO
SIGNIFICANT WEATHER AND/OR OBSTRUCTIONS TO VISIBILITY.

NOTE: STATIONS NOT REPORTING VARIABLES SUCH AS SKY/WEATHER OR
PRESSURE ARE PROVIDED BY THE NEBRASKA DEPARTMENT OF
ROADS...RAWS...AND APRS NETWORKS...AND ARE NOT UNDER
NATIONAL WEATHER SERVICE QUALITY CONTROL.

...OBSERVATIONS IN AND NEAR THE EASTERN PANHANDLE OF NEBRASKA...

CITY           SKY/WX    TMP DP  RH WIND       PRES   REMARKS
PINE RIDGE     CLOUDY    33  28  81 S14G23    30.08F WCI  23
CHADRON        CLOUDY    32  28  85 S6        30.08F WCI  26
ALLIANCE       CLOUDY    30  29  96 S17       30.10F FOG     WCI  18
SIDNEY         CLOUDY    30  30 100 S15       30.13F WCI  19
CRESCENT LAKE    N/A     29  29 100 S13         N/A  WCI  19
$$

...OBSERVATIONS IN NORTH CENTRAL NEBRASKA...

CITY           SKY/WX    TMP DP  RH WIND       PRES   REMARKS
VALENTINE      CLOUDY    22  19  89 SE20      30.25F WCI   7
THEDFORD       CLOUDY    23  22  95 S15       30.28F FOG     WCI  10
AINSWORTH      CLOUDY    19  17  88 S17G25    30.30F WCI   4
O`NEILL        CLOUDY    14  10  81 SE12      30.42F WCI   1
ORD            CLOUDY    16   7  67 S13       30.42F WCI   2
BROKEN BOW     CLOUDY    18  13  80 SE17      30.37F WCI   3
VALENTINE NWR    N/A     20  18  91 S14         N/A  WCI   7
BUTTE            N/A     12   9  89 SE14        N/A  WCI  -3
HALSEY           N/A     20  19  93 SE9G17      N/A  WCI   9
CHAMBERS         N/A     14   8  76 S6          N/A  WCI   5
EWING            N/A     12   9  87 SE5G12      N/A  WCI   4
$$

...OBSERVATIONS IN SOUTHWEST NEBRASKA AND FAR NORTHEAST COLORADO...

CITY           SKY/WX    TMP DP  RH WIND       PRES   REMARKS
WRAY           CLOUDY    29  29 100 SE12      30.21F FOG     WCI  19
HOLYOKE        CLOUDY    32  30  93 S13       30.20F WCI  22
IMPERIAL       CLOUDY    27  26  96 S17       30.25S WCI  14
OGALLALA       CLOUDY    30  28  93 S10       30.22F FOG     WCI  21
NORTH PLATTE   CLOUDY    22  19  89 SE10      30.30F WCI  11
MCCOOK         CLOUDY    22  21  96 SE14      30.34F FOG     WCI   9
LEXINGTON      CLOUDY    20  16  82 SE14      30.38F WCI   7
STAPLETON        N/A     20  18  92 CALM        N/A
$$

...OBSERVATIONS IN CENTRAL LINCOLN COUNTY AREA...

CITY           SKY/WX    TMP DP  RH WIND       PRES   REMARKS
N.P. AIRPORT   CLOUDY    22  19  89 SE10      30.30F WCI  11
N.P. DOWNTOWN    N/A     21  20  94 SE5G13      N/A  WCI  15
N.P. SOUTHEAST   N/A     21  19  93 SE8         N/A  WCI  11
N.P. HILLCREST   N/A     21  20  96 S13G20      N/A  WCI   9
$$

...SOME OBSERVATIONS FROM AROUND THE REGION...

CITY           SKY/WX    TMP DP  RH WIND       PRES   REMARKS
DENVER         FOG       28  27  96 W3        30.10F VSB 1/16
LARAMIE        CLOUDY    39  19  44 SW15      30.12F WCI  31
CHEYENNE       CLOUDY    39  23  52 W9        30.07F WCI  33
SCOTTSBLUFF    CLOUDY    30  28  92 SE9       30.09F WCI  22
RAPID CITY     CLOUDY    29  26  89 SE9       30.05F WCI  20
BISMARCK       CLOUDY     9   0  67 SE14      30.33F WCI  -7
PIERRE         CLOUDY    13   7  77 SE23G30   30.30F WCI  -6
WINNER         CLOUDY    18  11  74 SE17G24   30.32F WCI   3
SIOUX FALLS    CLOUDY     0  -8  69 SE6       30.55S WCI -12
OMAHA          CLOUDY     9   0  67 E5        30.63S WCI   1
GRAND ISLAND   CLOUDY    15   7  70 SE12      30.48F WCI   2
KANSAS CITY    CLOUDY    16   4  59 E9        30.60R WCI   4
WICHITA        CLOUDY    24  10  55 E14       30.48S WCI  12
OKLAHOMA CITY  CLEAR     32  21  64 E10       30.42R WCI  24
LIBERAL        CLOUDY    27  21  80 SE12      30.33F WCI  16
HAYS           CLOUDY    19   9  63 E12       30.43R WCI   7
GOODLAND       CLOUDY    25  24  96 S20       30.25F FOG     WCI  11
$$




USA.gov is the U.S. government's official web portal to all federal, state and local government web resources and services.